Location: Newark
(45.5167°N, 11.1667°E)
Time: 03:03:29
(UTC+00:00)

Explorer 7 - Pass Details

Date: 23 December 2019
Orbit: 485 x 679 km, 50.3° (Epoch: 27 January)

Event Time Altitude Azimuth Distance (km) Brightness Sun altitude
Rises 12:32:29 0° 271° (W) 2,897 10.7 18.8°
Reaches altitude 10° 12:34:49 10° 277° (W) 2,020 9.9 18.7°
Maximum altitude 12:39:21 49° 353° (N) 846 7.6 18.4°
Drops below altitude 10° 12:44:06 10° 68° (ENE) 2,103 9.5 18.1°
Sets 12:46:34 0° 74° (ENE) 3,029 10.2 17.9°
